PHBAP EHEH-EHEH

Flight info

Callsign PHBAP
Flight time 0h 37m
Altitude 8000
Route DCT DLN DCT 5232N00550E 5305N00448E 5307N00450E 5232N00550E DCT DLN DCT
Aircraft DA42/L-SBDGRY/S

Departure

Time 2026-05-05 14:59
Airport Eindhoven Airport (EHEH)

Arrival

Time 2026-05-05 15:36
Airport Eindhoven Airport (EHEH)
Time Latitude Longitude Altitude Speed Heading
2026-05-05 14:27 51.45777 5.37770 69 ft 0 kts 55°
2026-05-05 14:51 51.45781 5.37808 69 ft 7 kts 70°
2026-05-05 14:51 51.45841 5.37884 69 ft 13 kts 40°
2026-05-05 14:52 51.45830 5.37985 67 ft 8 kts 124°
2026-05-05 14:52 51.45812 5.38026 68 ft 6 kts 125°
2026-05-05 14:52 51.45795 5.38040 69 ft 4 kts 204°
2026-05-05 14:52 51.45737 5.37984 68 ft 16 kts 213°
2026-05-05 14:53 51.45620 5.37853 70 ft 16 kts 216°
2026-05-05 14:53 51.45524 5.37742 70 ft 11 kts 210°
2026-05-05 14:53 51.45474 5.37689 70 ft 9 kts 214°
2026-05-05 14:53 51.45402 5.37607 67 ft 11 kts 213°
2026-05-05 14:54 51.45327 5.37524 68 ft 15 kts 214°
2026-05-05 14:54 51.45229 5.37413 69 ft 19 kts 214°
2026-05-05 14:54 51.45115 5.37277 69 ft 22 kts 212°
2026-05-05 14:54 51.45003 5.37160 70 ft 17 kts 211°
2026-05-05 14:55 51.44914 5.37062 63 ft 17 kts 216°
2026-05-05 14:55 51.44825 5.36962 67 ft 15 kts 206°
2026-05-05 14:55 51.44792 5.36983 68 ft 4 kts 134°
2026-05-05 14:55 51.44791 5.36985 68 ft 0 kts 135°
2026-05-05 14:56 51.44790 5.36986 68 ft 2 kts 134°
2026-05-05 14:56 51.44773 5.37014 65 ft 0 kts 134°
2026-05-05 14:56 51.44768 5.37020 70 ft 6 kts 134°
2026-05-05 14:57 51.44718 5.37131 72 ft 6 kts 50°
2026-05-05 14:57 51.44736 5.37141 68 ft 0 kts 36°
2026-05-05 14:59 51.44850 5.37270 64 ft 54 kts 34°
2026-05-05 14:59 51.45271 5.37743 175 ft 84 kts 34°
2026-05-05 14:59 51.45759 5.38280 435 ft 87 kts 35°
2026-05-05 14:59 51.46242 5.38820 764 ft 84 kts 34°
2026-05-05 15:00 51.46737 5.39247 1056 ft 83 kts 354°
2026-05-05 15:00 51.47008 5.38758 1126 ft 107 kts 293°
2026-05-05 15:00 51.46374 5.37214 938 ft 142 kts 207°
2026-05-05 15:00 51.45482 5.36465 912 ft 147 kts 207°
2026-05-05 15:01 51.44556 5.35724 915 ft 149 kts 207°
2026-05-05 15:01 51.43632 5.34962 751 ft 156 kts 210°
2026-05-05 15:01 51.42834 5.33951 932 ft 143 kts 217°
2026-05-05 15:01 51.42010 5.33059 982 ft 144 kts 214°
2026-05-05 15:02 51.41190 5.32156 1017 ft 144 kts 214°
2026-05-05 15:02 51.40425 5.31336 997 ft 122 kts 215°
2026-05-05 15:02 51.39672 5.30855 967 ft 124 kts 170°
2026-05-05 15:02 51.39511 5.31578 1017 ft 89 kts 26°
2026-05-05 15:03 51.40128 5.32068 923 ft 101 kts 28°
2026-05-05 15:03 51.40670 5.32610 906 ft 81 kts 35°
2026-05-05 15:03 51.41120 5.33111 874 ft 79 kts 33°
2026-05-05 15:03 51.41566 5.33605 789 ft 78 kts 34°
2026-05-05 15:04 51.42010 5.34103 658 ft 78 kts 32°
2026-05-05 15:04 51.42443 5.34577 553 ft 73 kts 36°
2026-05-05 15:04 51.42861 5.35045 484 ft 74 kts 34°
2026-05-05 15:04 51.43291 5.35523 348 ft 71 kts 37°
2026-05-05 15:05 51.44024 5.36338 141 ft 60 kts 34°
2026-05-05 15:05 51.44359 5.36718 72 ft 59 kts 34°
2026-05-05 15:05 51.44682 5.37080 71 ft 56 kts 36°
2026-05-05 15:06 51.45104 5.37555 189 ft 84 kts 35°
2026-05-05 15:06 51.45594 5.38111 431 ft 90 kts 34°
2026-05-05 15:06 51.46105 5.38664 705 ft 89 kts 33°
2026-05-05 15:06 51.46628 5.39239 961 ft 93 kts 34°
2026-05-05 15:07 51.47214 5.39639 1078 ft 106 kts 352°
2026-05-05 15:07 51.47753 5.38728 1022 ft 131 kts 288°
2026-05-05 15:07 51.47399 5.37365 1029 ft 147 kts 218°
2026-05-05 15:07 51.46516 5.36549 1006 ft 145 kts 210°
2026-05-05 15:08 51.45642 5.35745 1024 ft 147 kts 210°
2026-05-05 15:08 51.44768 5.34846 985 ft 149 kts 214°
2026-05-05 15:08 51.43912 5.33945 985 ft 142 kts 227°
2026-05-05 15:08 51.43851 5.32588 1037 ft 118 kts 314°
2026-05-05 15:09 51.44432 5.32681 902 ft 104 kts 63°
2026-05-05 15:09 51.44117 5.33637 970 ft 123 kts 165°
2026-05-05 15:09 51.43206 5.33352 928 ft 139 kts 193°
2026-05-05 15:09 51.42288 5.32879 986 ft 141 kts 198°
2026-05-05 15:10 51.41344 5.32394 1042 ft 141 kts 193°
2026-05-05 15:10 51.40420 5.31865 1088 ft 141 kts 212°
2026-05-05 15:10 51.40169 5.30575 1049 ft 133 kts 314°
2026-05-05 15:10 51.40932 5.30666 1015 ft 128 kts 51°
2026-05-05 15:11 51.40722 5.31852 1105 ft 136 kts 164°
2026-05-05 15:11 51.39861 5.31176 1022 ft 148 kts 218°
2026-05-05 15:11 51.39030 5.30115 857 ft 153 kts 220°
2026-05-05 15:11 51.38148 5.29507 1088 ft 135 kts 164°
2026-05-05 15:12 51.37973 5.30454 1191 ft 108 kts 40°
2026-05-05 15:12 51.38697 5.30905 1146 ft 119 kts 21°
2026-05-05 15:12 51.39477 5.31394 1015 ft 110 kts 25°
2026-05-05 15:12 51.40097 5.31967 922 ft 95 kts 33°
2026-05-05 15:13 51.40618 5.32535 873 ft 86 kts 34°
2026-05-05 15:13 51.41104 5.33068 790 ft 77 kts 35°
2026-05-05 15:13 51.41493 5.33521 749 ft 65 kts 34°
2026-05-05 15:13 51.41858 5.33941 684 ft 65 kts 32°
2026-05-05 15:14 51.42250 5.34355 583 ft 67 kts 36°
2026-05-05 15:14 51.42626 5.34776 538 ft 66 kts 34°
2026-05-05 15:14 51.43011 5.35202 430 ft 69 kts 36°
2026-05-05 15:14 51.43404 5.35628 310 ft 67 kts 38°
2026-05-05 15:15 51.43792 5.36080 200 ft 71 kts 34°
2026-05-05 15:15 51.44179 5.36517 99 ft 63 kts 34°
2026-05-05 15:15 51.44510 5.36889 65 ft 54 kts 34°
2026-05-05 15:15 51.44905 5.37335 146 ft 83 kts 34°
2026-05-05 15:16 51.45394 5.37895 394 ft 87 kts 36°
2026-05-05 15:16 51.45878 5.38424 750 ft 78 kts 27°
2026-05-05 15:16 51.46363 5.38778 1047 ft 81 kts 25°
2026-05-05 15:16 51.46886 5.39301 1115 ft 100 kts 15°
2026-05-05 15:17 51.47514 5.38693 1038 ft 130 kts 297°
2026-05-05 15:17 51.47154 5.37343 978 ft 149 kts 212°
2026-05-05 15:17 51.46216 5.36645 961 ft 142 kts 204°
2026-05-05 15:17 51.45309 5.35967 952 ft 146 kts 207°
2026-05-05 15:18 51.44426 5.35160 905 ft 142 kts 211°
2026-05-05 15:18 51.43673 5.34307 989 ft 126 kts 217°
2026-05-05 15:18 51.42981 5.33430 1020 ft 125 kts 221°
2026-05-05 15:18 51.42318 5.32509 968 ft 129 kts 220°
2026-05-05 15:19 51.41649 5.31589 976 ft 128 kts 221°
2026-05-05 15:19 51.40960 5.30726 999 ft 125 kts 213°
2026-05-05 15:19 51.40228 5.29931 995 ft 128 kts 216°
2026-05-05 15:19 51.39463 5.29267 1004 ft 123 kts 179°
2026-05-05 15:20 51.38923 5.30004 1060 ft 105 kts 89°
2026-05-05 15:20 51.39271 5.30940 1041 ft 102 kts 40°
2026-05-05 15:20 51.39855 5.31628 1010 ft 106 kts 34°
2026-05-05 15:20 51.40431 5.32292 937 ft 93 kts 35°
2026-05-05 15:21 51.40923 5.32851 865 ft 80 kts 36°
2026-05-05 15:21 51.41326 5.33329 795 ft 64 kts 32°
2026-05-05 15:21 51.41669 5.33703 695 ft 55 kts 33°
2026-05-05 15:21 51.41979 5.34048 615 ft 56 kts 35°
2026-05-05 15:22 51.42327 5.34409 537 ft 62 kts 35°
2026-05-05 15:22 51.42683 5.34825 482 ft 63 kts 34°
2026-05-05 15:22 51.43050 5.35235 362 ft 62 kts 38°
2026-05-05 15:22 51.43400 5.35627 264 ft 60 kts 37°
2026-05-05 15:23 51.43653 5.35917 213 ft 52 kts 34°
2026-05-05 15:23 51.43953 5.36257 158 ft 54 kts 34°
2026-05-05 15:23 51.44265 5.36610 88 ft 56 kts 34°
2026-05-05 15:23 51.44583 5.36970 70 ft 51 kts 35°
2026-05-05 15:24 51.44929 5.37366 152 ft 74 kts 36°
2026-05-05 15:24 51.45365 5.37816 451 ft 78 kts 34°
2026-05-05 15:24 51.45792 5.38314 778 ft 76 kts 34°
2026-05-05 15:24 51.46259 5.38806 1028 ft 82 kts 30°
2026-05-05 15:25 51.46788 5.39360 1078 ft 102 kts 30°
2026-05-05 15:25 51.47391 5.38899 1084 ft 126 kts 298°
2026-05-05 15:25 51.47082 5.37618 1105 ft 144 kts 216°
2026-05-05 15:25 51.46201 5.36755 953 ft 150 kts 210°
2026-05-05 15:26 51.45309 5.35929 973 ft 147 kts 210°
2026-05-05 15:26 51.44418 5.35103 989 ft 145 kts 218°
2026-05-05 15:26 51.43600 5.34169 956 ft 147 kts 215°
2026-05-05 15:26 51.42756 5.33240 974 ft 148 kts 213°
2026-05-05 15:27 51.41903 5.32312 950 ft 151 kts 216°
2026-05-05 15:27 51.41076 5.31314 1012 ft 144 kts 218°
2026-05-05 15:27 51.40270 5.30351 1039 ft 148 kts 217°
2026-05-05 15:27 51.39453 5.29323 1003 ft 149 kts 230°
2026-05-05 15:28 51.39334 5.27920 1132 ft 126 kts 313°
2026-05-05 15:28 51.40065 5.27813 1033 ft 122 kts 47°
2026-05-05 15:28 51.40064 5.28675 1012 ft 136 kts 125°
2026-05-05 15:28 51.39147 5.28673 861 ft 151 kts 222°
2026-05-05 15:29 51.39042 5.27300 1013 ft 127 kts 321°
2026-05-05 15:29 51.39779 5.27542 912 ft 130 kts 65°
2026-05-05 15:29 51.39365 5.28702 865 ft 144 kts 161°
2026-05-05 15:29 51.38577 5.28088 1054 ft 136 kts 252°
2026-05-05 15:30 51.38796 5.26739 1108 ft 126 kts 324°
2026-05-05 15:30 51.39593 5.26809 952 ft 131 kts 47°
2026-05-05 15:30 51.39381 5.27949 916 ft 129 kts 151°
2026-05-05 15:30 51.38577 5.27593 982 ft 132 kts 239°
2026-05-05 15:31 51.38780 5.26469 1048 ft 114 kts 348°
2026-05-05 15:31 51.39369 5.27141 965 ft 120 kts 83°
2026-05-05 15:31 51.38768 5.27805 1036 ft 138 kts 189°
2026-05-05 15:31 51.38533 5.26672 1049 ft 120 kts 324°
2026-05-05 15:32 51.39231 5.26898 996 ft 118 kts 53°
2026-05-05 15:32 51.39003 5.28064 1011 ft 131 kts 151°
2026-05-05 15:32 51.38323 5.27555 1029 ft 128 kts 271°
2026-05-05 15:32 51.38823 5.26869 1232 ft 98 kts 30°
2026-05-05 15:33 51.38738 5.27919 1178 ft 120 kts 128°
2026-05-05 15:33 51.38355 5.29031 931 ft 129 kts 86°
2026-05-05 15:33 51.38715 5.30239 893 ft 119 kts 45°
2026-05-05 15:33 51.39359 5.31062 896 ft 115 kts 33°
2026-05-05 15:34 51.40024 5.31771 876 ft 115 kts 38°
2026-05-05 15:34 51.40603 5.32445 882 ft 91 kts 34°
2026-05-05 15:34 51.41079 5.32985 827 ft 81 kts 37°
2026-05-05 15:34 51.41528 5.33504 754 ft 79 kts 33°
2026-05-05 15:35 51.41971 5.34004 662 ft 77 kts 36°
2026-05-05 15:35 51.42381 5.34477 584 ft 71 kts 36°
2026-05-05 15:35 51.42804 5.34950 427 ft 74 kts 34°
2026-05-05 15:35 51.43194 5.35394 323 ft 63 kts 36°
2026-05-05 15:36 51.43545 5.35800 272 ft 65 kts 34°
2026-05-05 15:36 51.43926 5.36229 164 ft 66 kts 34°
2026-05-05 15:36 51.44280 5.36628 71 ft 57 kts 34°
2026-05-05 15:36 51.44569 5.36956 70 ft 43 kts 36°
2026-05-05 15:37 51.44900 5.37326 67 ft 68 kts 33°
2026-05-05 15:37 51.45237 5.37705 64 ft 47 kts 38°
2026-05-05 15:37 51.45413 5.37903 73 ft 20 kts 35°
2026-05-05 15:37 51.45487 5.37983 73 ft 17 kts 34°
2026-05-05 15:38 51.45565 5.38027 68 ft 0 kts 321°
2026-05-05 15:38 51.45613 5.37932 70 ft 20 kts 308°
2026-05-05 15:38 51.45688 5.37929 68 ft 13 kts 35°
2026-05-05 15:38 51.45765 5.38015 70 ft 10 kts 34°
2026-05-05 15:39 51.45840 5.37965 69 ft 20 kts 306°
2026-05-05 15:39 51.45827 5.37864 68 ft 19 kts 212°
2026-05-05 15:39 51.45750 5.37733 69 ft 10 kts 292°